This is the latest recevied weather packets stored in our database for station/object DK6MAX-13. If no packets are shown the sender has not sent any weather packets the latest 10 day(s).
| Time | Temp. | Humidity | Pressure | Rain* | Wind** | Luminosity | Snow |
|---|---|---|---|---|---|---|---|
| 1777186368 | 8.89° C | 64% | 1025.3 hPa | - | - | - | - |
| 1777186308 | 8.33° C | 64% | 1025.3 hPa | - | - | - | - |
| 1777186308 | 8.33° C | 62% | 1025.3 hPa | - | - | - | - |
| 1777186248 | 8.89° C | 65% | 1025.3 hPa | - | - | - | - |
| 1777186248 | 8.89° C | 62% | 1025.3 hPa | - | - | - | - |
| 1777186188 | 8.33° C | 65% | 1025.3 hPa | - | - | - | - |
| 1777186188 | 8.33° C | 64% | 1025.3 hPa | - | - | - | - |
| 1777186128 | 8.89° C | 64% | 1025.3 hPa | - | - | - | - |
| 1777186127 | 8.89° C | 62% | 1025.3 hPa | - | - | - | - |
| 1777186068 | 9.44° C | 62% | 1025.3 hPa | - | - | - | - |
| 1777186067 | 9.44° C | 64% | 1025.3 hPa | - | - | - | - |
| 1777186008 | 9.44° C | 64% | 1025.3 hPa | - | - | - | - |
| 1777186008 | 9.44° C | 60% | 1025.3 hPa | - | - | - | - |
| 1777185948 | 8.89° C | 60% | 1025.3 hPa | - | - | - | - |
| 1777185948 | 8.89° C | 63% | 1025.3 hPa | - | - | - | - |
| 1777185888 | 8.89° C | 63% | 1025.3 hPa | - | - | - | - |
| 1777185887 | 8.89° C | 67% | 1025.3 hPa | - | - | - | - |
| 1777185828 | 8.89° C | 67% | 1025.3 hPa | - | - | - | - |
| 1777185828 | 8.89° C | 63% | 1025.3 hPa | - | - | - | - |
| 1777185768 | 8.33° C | 63% | 1025.3 hPa | - | - | - | - |
| 1777185767 | 8.33° C | 64% | 1025.3 hPa | - | - | - | - |
| 1777185708 | 9.44° C | 64% | 1025.3 hPa | - | - | - | - |
| 1777185708 | 9.44° C | 62% | 1025.3 hPa | - | - | - | - |
| 1777185648 | 9.44° C | 62% | 1025.2 hPa | - | - | - | - |
| 1777185648 | 9.44° C | 62% | 1025.3 hPa | - | - | - | - |
* Rain since midnight (hover to see other rain measurements)
** Current wind speed in m/s (hover to see current wind gust speed)